LXR023 LPPR-LPPT

Flight info

Callsign LXR023
Flight time N/A
Altitude 23000
Route MANIK DCT ABRIL DCT XAMAX
Aircraft A320/M-SDE3FGHIRWY/LB1

Departure

Time 2026-04-30 21:35
Airport Francisco de Sá Carneiro Airport (LPPR)

Arrival

Time N/A
Airport Lisbon Humberto Delgado Airport (LPPT)
Time Latitude Longitude Altitude Speed Heading
2026-04-30 21:11 41.23593 -8.67225 235 ft 0 kts 89°
2026-04-30 21:26 41.23591 -8.67279 239 ft 4 kts 83°
2026-04-30 21:26 41.23586 -8.67314 239 ft 4 kts 71°
2026-04-30 21:27 41.23569 -8.67349 239 ft 0 kts 31°
2026-04-30 21:29 41.23598 -8.67365 239 ft 8 kts 320°
2026-04-30 21:30 41.23741 -8.67452 235 ft 12 kts 347°
2026-04-30 21:31 41.24171 -8.67564 235 ft 23 kts 349°
2026-04-30 21:31 41.24297 -8.67690 237 ft 11 kts 321°
2026-04-30 21:32 41.24557 -8.67776 239 ft 27 kts 350°
2026-04-30 21:32 41.24723 -8.67816 237 ft 15 kts 348°
2026-04-30 21:32 41.24824 -8.67869 235 ft 16 kts 327°
2026-04-30 21:32 41.24932 -8.67925 235 ft 17 kts 348°
2026-04-30 21:33 41.25058 -8.67958 235 ft 19 kts 349°
2026-04-30 21:33 41.25377 -8.68042 235 ft 26 kts 348°
2026-04-30 21:33 41.25560 -8.68089 235 ft 28 kts 349°
2026-04-30 21:34 41.25664 -8.68139 237 ft 12 kts 308°
2026-04-30 21:34 41.25662 -8.68274 239 ft 5 kts 258°
2026-04-30 21:34 41.25646 -8.68332 237 ft 8 kts 222°
2026-04-30 21:35 41.25560 -8.68319 235 ft 27 kts 169°
2026-04-30 21:35 41.25105 -8.68199 234 ft 102 kts 168°
2026-04-30 21:35 41.24204 -8.67965 259 ft 156 kts 169°
2026-04-30 21:35 41.23147 -8.67693 916 ft 154 kts 169°
2026-04-30 21:36 41.22093 -8.67418 1631 ft 156 kts 169°
2026-04-30 21:36 41.20936 -8.67112 1988 ft 182 kts 169°
2026-04-30 21:37 41.16539 -8.65952 3345 ft 251 kts 169°
2026-04-30 21:37 41.14782 -8.65498 4142 ft 261 kts 169°
2026-04-30 21:37 41.12992 -8.65033 5167 ft 263 kts 169°
2026-04-30 21:37 41.11190 -8.64560 6175 ft 262 kts 169°
2026-04-30 21:38 41.09460 -8.64159 6507 ft 247 kts 171°
2026-04-30 21:38 41.07784 -8.63825 6584 ft 243 kts 173°
2026-04-30 21:38 41.06084 -8.63532 6586 ft 250 kts 173°
2026-04-30 21:38 41.04327 -8.63231 6592 ft 263 kts 172°
2026-04-30 21:39 41.02529 -8.62902 6584 ft 253 kts 171°
2026-04-30 21:39 41.00845 -8.62565 6580 ft 237 kts 171°
2026-04-30 21:39 40.99284 -8.62252 6578 ft 224 kts 171°
2026-04-30 21:39 40.97731 -8.61953 6577 ft 222 kts 172°
2026-04-30 21:40 40.96207 -8.61668 6577 ft 221 kts 172°
2026-04-30 21:40 40.94703 -8.61386 6577 ft 221 kts 172°
2026-04-30 21:40 40.93179 -8.61123 6577 ft 221 kts 171°
2026-04-30 21:40 40.91675 -8.60732 6463 ft 219 kts 169°
2026-04-30 21:41 40.90176 -8.60388 6215 ft 217 kts 168°
2026-04-30 21:41 40.88677 -8.60082 6162 ft 219 kts 183°
2026-04-30 21:41 40.87257 -8.60736 6161 ft 221 kts 218°
2026-04-30 21:41 40.86379 -8.62382 6163 ft 225 kts 252°
2026-04-30 21:42 40.86375 -8.64434 6159 ft 229 kts 287°
2026-04-30 21:42 40.87064 -8.66343 6169 ft 232 kts 298°
2026-04-30 21:42 40.87885 -8.68177 6161 ft 232 kts 300°
2026-04-30 21:42 40.88721 -8.69998 6158 ft 232 kts 300°
2026-04-30 21:43 40.89559 -8.71817 6168 ft 232 kts 300°
2026-04-30 21:43 40.90400 -8.73638 6168 ft 232 kts 300°
2026-04-30 21:43 40.91419 -8.75278 6154 ft 233 kts 325°
2026-04-30 21:43 40.92875 -8.76235 6163 ft 235 kts 338°
2026-04-30 21:44 40.94404 -8.76995 6163 ft 235 kts 339°
2026-04-30 21:44 40.95942 -8.77731 6161 ft 235 kts 340°
2026-04-30 21:44 40.97506 -8.78353 6158 ft 235 kts 348°
2026-04-30 21:44 40.99115 -8.78743 6165 ft 235 kts 350°
2026-04-30 21:45 41.00730 -8.79093 6164 ft 235 kts 351°
2026-04-30 21:45 41.02347 -8.79439 6162 ft 236 kts 351°
2026-04-30 21:45 41.03967 -8.79786 6152 ft 236 kts 351°
2026-04-30 21:45 41.05588 -8.80133 6159 ft 236 kts 351°
2026-04-30 21:46 41.07209 -8.80481 6166 ft 236 kts 351°
2026-04-30 21:46 41.08829 -8.80829 6166 ft 236 kts 351°
2026-04-30 21:46 41.10448 -8.81177 6164 ft 236 kts 351°
2026-04-30 21:46 41.12067 -8.81525 6166 ft 236 kts 351°
2026-04-30 21:47 41.13686 -8.81873 6164 ft 236 kts 351°
2026-04-30 21:47 41.15308 -8.82223 6046 ft 239 kts 351°
2026-04-30 21:47 41.16948 -8.82593 5710 ft 239 kts 350°
2026-04-30 21:47 41.18571 -8.82964 5387 ft 240 kts 350°
2026-04-30 21:48 41.20226 -8.83337 5066 ft 247 kts 350°
2026-04-30 21:48 41.22028 -8.83707 4732 ft 271 kts 351°
2026-04-30 21:48 41.23905 -8.84106 4397 ft 274 kts 350°
2026-04-30 21:48 41.25781 -8.84512 4052 ft 272 kts 350°
2026-04-30 21:49 41.27642 -8.84915 3739 ft 270 kts 350°
2026-04-30 21:49 41.29488 -8.85312 3431 ft 267 kts 350°
2026-04-30 21:49 41.31317 -8.85694 3305 ft 266 kts 350°
2026-04-30 21:49 41.33147 -8.86070 3178 ft 266 kts 350°
2026-04-30 21:50 41.34979 -8.86228 3053 ft 265 kts
2026-04-30 21:50 41.36651 -8.85286 2997 ft 264 kts 39°
2026-04-30 21:50 41.37740 -8.83354 3004 ft 263 kts 69°
2026-04-30 21:50 41.38260 -8.81017 3010 ft 263 kts 77°
2026-04-30 21:51 41.38684 -8.78643 2976 ft 264 kts 77°
2026-04-30 21:51 41.39101 -8.76267 2901 ft 263 kts 77°
2026-04-30 21:51 41.39512 -8.73890 2798 ft 263 kts 79°
2026-04-30 21:51 41.39452 -8.71501 2465 ft 254 kts 112°
2026-04-30 21:52 41.38414 -8.69788 2303 ft 232 kts 151°
2026-04-30 21:52 41.36924 -8.69407 2080 ft 215 kts 193°
2026-04-30 21:52 41.35563 -8.70030 1849 ft 200 kts 199°
2026-04-30 21:52 41.34267 -8.70325 1664 ft 180 kts 180°
2026-04-30 21:53 41.33065 -8.70202 1434 ft 168 kts 172°
2026-04-30 21:53 41.31957 -8.69972 1238 ft 155 kts 170°
2026-04-30 21:53 41.30918 -8.69721 1037 ft 149 kts 170°
2026-04-30 21:53 41.29909 -8.69464 853 ft 147 kts 171°
2026-04-30 21:54 41.28924 -8.69214 701 ft 146 kts 171°
2026-04-30 21:54 41.27935 -8.68947 546 ft 145 kts 172°
2026-04-30 21:54 41.26949 -8.68691 404 ft 144 kts 171°